Date,TemperatureHighF,TemperatureAvgF,TemperatureLowF,DewpointHighF,DewpointAvgF,DewpointLowF,HumidityHigh,HumidityAvg,HumidityLow,PressureMaxIn,PressureMinIn,WindSpeedMaxMPH,WindSpeedAvgMPH,GustSpeedMaxMPH,PrecipitationSumIn
2013-1-1,57.6,47.8,34.8,36.9,26.0,16.5,89,50,22,30.26,30.13,15,2,19,0.00
2013-1-2,64.7,56.6,50.9,23.7,19.4,16.7,29,23,20,30.17,30.05,13,3,24,0.00
2013-1-3,64.8,57.8,47.8,21.4,18.4,14.6,34,22,17,30.19,30.07,18,4,28,0.00
2013-1-4,67.6,52.0,38.8,33.7,21.6,14.3,62,34,16,30.28,30.16,5,0,11,0.00
2013-1-5,64.2,47.9,34.2,38.7,29.4,20.7,73,51,25,30.31,30.20,5,0,9,0.00
2013-1-6,53.6,46.6,39.2,45.4,41.9,36.5,95,84,63,30.21,30.04,11,1,19,0.00
2013-1-7,64.5,50.4,37.6,41.5,35.0,25.8,91,58,30,30.15,30.03,5,0,12,0.00
2013-1-8,77.7,59.5,44.7,47.2,35.8,23.6,71,43,25,30.12,30.04,6,0,15,0.00
2013-1-9,69.0,53.6,44.3,51.3,42.7,36.1,91,69,34,30.12,30.01,5,0,9,0.00
2013-1-10,56.0,48.8,37.2,46.4,34.6,23.4,87,61,29,30.13,29.93,14,1,22,0.00
2013-1-11,53.2,42.2,29.9,30.6,24.8,20.1,79,52,32,30.22,30.08,4,0,13,0.00
2013-1-12,55.7,41.2,30.8,27.9,24.2,16.8,76,54,23,30.19,30.10,11,1,17,0.00
2013-1-13,54.0,42.8,31.5,29.7,22.8,11.1,71,47,26,30.20,30.08,11,1,16,0.00
2013-1-14,51.9,43.4,36.3,10.9,7.9,5.3,31,23,17,30.38,30.18,12,2,23,0.00
2013-1-15,61.8,51.3,35.3,24.6,16.9,6.0,34,26,21,30.47,30.34,15,2,20,0.00
2013-1-16,69.3,60.8,52.5,29.8,25.2,21.8,33,26,21,30.38,30.15,17,4,26,0.00
2013-1-17,73.9,65.8,60.2,23.1,20.7,17.8,22,18,14,30.19,30.07,17,4,26,0.00
2013-1-18,73.5,65.5,60.2,23.6,19.6,16.8,19,17,15,30.16,30.06,10,2,21,0.00
2013-1-19,76.1,66.2,59.7,23.4,18.9,16.0,22,16,13,30.19,30.08,12,2,19,0.00
2013-1-20,75.9,66.2,52.6,23.0,17.9,15.0,26,16,12,30.14,30.02,15,2,20,0.00
2013-1-21,78.4,67.0,50.4,20.5,16.9,13.4,27,15,10,30.10,30.00,9,2,24,0.00
2013-1-22,80.0,61.6,46.8,34.3,20.9,13.1,37,23,10,30.10,30.00,7,1,15,0.00
2013-1-23,76.6,61.3,52.4,48.3,33.3,24.6,85,37,21,30.12,30.01,7,0,16,0.00
2013-1-24,61.4,56.1,50.8,54.7,52.5,48.0,95,88,77,30.18,30.08,9,1,13,0.00
2013-1-25,60.1,58.0,55.2,54.0,51.7,47.5,93,80,64,30.15,29.97,7,1,14,0.00
2013-1-26,67.9,57.8,51.9,57.8,53.8,49.4,96,87,65,29.99,29.88,5,1,12,0.00
2013-1-27,60.4,52.0,39.2,49.6,43.1,30.4,92,73,50,30.05,29.94,7,1,13,0.00
2013-1-28,57.4,46.1,35.7,38.7,32.1,28.8,86,61,37,30.21,30.04,7,0,12,0.00
2013-1-29,59.9,46.6,35.2,41.7,35.6,30.8,85,67,35,30.24,30.15,7,0,11,0.00
2013-1-30,70.7,51.3,37.9,46.3,39.6,34.9,90,68,31,30.35,30.23,6,0,10,0.00
2013-1-31,77.5,56.9,40.9,45.2,39.1,35.5,81,56,25,30.27,30.12,8,1,14,0.00
2013-2-1,77.5,57.5,44.9,47.5,41.2,36.6,75,57,26,30.18,30.12,5,0,13,0.00
2013-2-2,74.5,62.8,50.6,49.4,43.1,37.8,72,51,28,30.21,30.12,10,0,12,0.00
2013-2-3,74.0,59.3,46.3,50.3,45.0,41.7,84,62,35,30.14,30.00,6,0,12,0.00
2013-2-4,69.2,52.9,41.8,52.8,44.8,36.3,89,75,52,30.10,29.99,6,0,11,0.00
2013-2-5,57.3,49.2,41.1,50.0,46.2,39.0,95,89,76,30.11,30.00,6,0,11,0.00
2013-2-6,63.9,52.6,43.3,49.5,46.4,40.6,94,81,56,30.12,30.01,5,0,11,0.00
2013-2-7,58.3,48.5,38.2,48.2,43.2,36.4,96,83,66,30.15,29.99,8,1,13,0.00
2013-2-8,51.8,45.0,38.8,44.1,38.6,36.3,91,79,60,29.99,29.88,13,2,20,0.00
2013-2-9,56.9,43.9,31.7,39.7,34.9,29.9,95,74,41,30.12,29.94,7,0,14,0.00
2013-2-10,54.8,44.3,34.3,42.0,37.9,32.0,95,79,54,30.11,30.02,6,0,11,0.00
2013-2-11,62.0,46.6,33.3,38.5,31.6,22.0,94,63,22,30.26,30.08,9,1,21,0.00
2013-2-12,62.8,47.2,32.5,35.1,29.0,20.8,83,54,20,30.35,30.26,12,1,16,0.00
2013-2-13,70.9,50.6,36.5,42.9,34.4,28.6,78,58,22,30.28,30.16,13,0,14,0.00
2013-2-14,77.5,55.7,37.6,40.1,34.0,30.4,77,50,19,30.20,30.07,7,1,20,0.00
2013-2-15,78.5,67.8,50.9,31.4,27.6,22.6,46,23,16,30.20,30.12,18,2,27,0.00
2013-2-16,80.2,63.6,46.3,31.6,26.6,22.6,45,26,13,30.16,29.97,11,1,13,0.00
2013-2-17,67.7,52.8,40.1,48.8,36.6,25.6,90,58,26,30.03,29.92,7,0,12,0.00
2013-2-18,62.5,52.2,43.7,47.9,44.9,41.2,94,77,54,30.06,29.94,5,1,13,0.00
2013-2-19,54.5,48.1,41.1,44.3,41.7,37.2,93,79,59,29.98,29.72,10,1,17,0.00
2013-2-20,59.0,46.4,33.4,41.3,32.8,28.1,86,61,41,30.01,29.72,7,1,12,0.00
2013-2-21,59.8,46.6,36.1,42.4,35.3,28.7,84,66,39,30.12,29.99,10,1,14,0.00
2013-2-22,65.2,49.1,35.2,36.7,32.7,29.6,81,57,30,30.21,30.12,6,0,13,0.00
2013-2-23,63.2,50.4,35.7,48.6,36.4,25.8,83,61,34,30.18,29.92,9,1,24,0.00
2013-2-24,65.4,54.3,41.3,31.5,20.3,14.3,59,29,15,30.21,30.03,17,3,25,0.00
2013-2-25,66.5,50.4,36.1,35.8,25.9,16.2,61,41,18,30.23,30.08,9,1,15,0.00
2013-2-26,73.5,54.0,35.1,38.9,29.4,23.5,75,44,16,30.15,30.00,13,1,21,0.00
2013-2-27,73.0,59.4,47.6,26.9,21.0,16.6,38,24,14,30.30,30.14,12,2,22,0.00
2013-2-28,79.5,62.9,49.9,34.0,24.0,16.6,43,24,13,30.33,30.24,7,1,16,0.00
2013-3-1,84.3,67.1,49.9,34.0,27.9,22.1,43,25,14,30.31,30.15,10,1,22,0.00
2013-3-2,82.9,64.0,47.4,40.4,34.4,28.6,53,35,17,30.21,30.08,5,0,12,0.00
2013-3-3,70.1,58.8,47.7,49.2,43.8,33.0,88,60,34,30.10,29.97,11,1,15,0.00
2013-3-4,66.3,53.5,44.5,51.4,46.8,42.0,94,79,53,30.10,30.00,6,1,12,0.00
2013-3-5,66.0,51.9,44.3,51.0,47.0,41.8,94,84,57,30.13,30.03,9,1,14,0.00
2013-3-6,55.6,50.3,44.2,49.7,46.0,41.7,93,86,63,30.15,30.01,4,0,10,0.00
2013-3-7,58.1,51.5,47.1,49.0,44.5,36.0,95,79,45,30.01,29.82,9,1,14,0.00
2013-3-8,56.6,49.3,42.9,46.4,43.3,39.7,95,81,61,30.03,29.78,8,1,15,0.00
2013-3-9,63.6,51.8,39.8,46.0,41.1,35.5,93,69,45,30.22,30.03,9,1,14,0.00
2013-3-10,74.8,57.3,41.9,40.8,33.3,24.2,75,46,16,30.29,30.17,10,1,18,0.00
2013-3-11,73.9,56.7,40.5,45.0,37.9,30.9,69,53,24,30.18,30.05,5,0,11,0.00
2013-3-12,78.7,59.2,42.7,49.5,42.1,36.8,81,56,24,30.09,30.01,7,0,10,0.00
2013-3-13,89.1,64.9,47.9,53.6,41.9,37.2,72,47,17,30.11,30.02,7,0,13,0.00
2013-3-14,82.6,64.4,48.2,53.2,45.2,39.5,73,52,30,30.08,30.00,6,0,10,0.00
2013-3-15,78.9,60.4,49.4,55.6,49.2,43.5,85,68,36,30.01,29.92,8,0,13,0.00
2013-3-16,65.1,54.2,46.4,54.2,49.4,44.8,99,85,66,29.99,29.88,4,0,10,0.00
2013-3-17,71.8,55.6,43.6,55.2,48.3,41.7,95,78,43,30.01,29.92,7,0,13,0.00
2013-3-18,62.9,52.7,44.3,51.8,47.7,42.4,95,84,66,30.09,29.98,6,0,11,0.00
2013-3-19,68.2,56.0,45.2,54.9,49.4,43.3,96,80,57,30.12,30.03,9,0,12,0.00
2013-3-20,70.2,59.2,50.5,54.7,49.8,47.7,92,73,49,30.09,29.94,9,0,12,0.00
2013-3-21,72.2,59.2,47.2,53.9,48.6,44.4,91,70,43,29.95,29.80,9,0,14,0.00
2013-3-22,74.0,59.2,43.1,47.9,38.3,20.8,90,50,23,29.90,29.78,9,0,13,0.00
2013-3-23,71.2,56.5,40.0,50.2,37.8,20.5,76,51,27,30.00,29.89,10,1,12,0.00
2013-3-24,75.2,57.6,42.5,51.0,42.0,33.0,90,58,33,30.02,29.90,6,0,12,0.00
2013-3-25,71.2,55.7,44.4,54.8,44.8,33.2,87,68,42,29.96,29.89,10,1,10,0.00
2013-3-26,69.8,56.3,44.2,52.2,47.5,41.5,92,74,50,29.96,29.90,7,1,12,0.00
2013-3-27,69.2,56.3,46.5,53.0,48.8,44.0,94,78,56,30.04,29.92,13,1,18,0.00
2013-3-28,71.4,56.1,45.6,55.7,49.7,43.4,95,81,56,30.08,30.01,7,1,15,0.00
2013-3-29,71.3,58.2,47.0,56.7,51.2,44.5,95,79,58,30.11,30.03,5,0,12,0.00
2013-3-30,72.8,58.9,52.1,55.5,50.8,46.0,94,77,48,30.12,30.04,9,1,14,0.00
2013-3-31,64.1,57.7,52.4,57.3,52.4,49.2,92,83,67,30.11,30.05,6,1,17,0.00
2013-4-1,64.1,55.9,51.4,52.8,50.3,48.7,94,82,63,30.17,30.08,14,2,16,0.00
2013-4-2,70.2,55.6,45.9,53.4,49.1,44.0,95,80,50,30.10,30.02,11,1,13,0.00
2013-4-3,74.9,59.5,46.1,57.2,50.8,43.3,92,75,47,30.07,29.99,6,1,12,0.00
2013-4-4,70.4,58.4,52.7,55.4,52.9,50.1,94,83,58,30.11,30.01,9,1,15,0.00
2013-4-5,71.7,59.8,53.6,56.1,53.1,49.8,94,80,50,30.09,29.98,8,1,15,0.00
2013-4-6,72.9,59.7,48.0,56.7,51.2,45.8,95,75,47,30.09,29.94,11,1,16,0.00
2013-4-7,76.9,61.1,47.7,53.2,48.9,44.8,90,68,34,29.96,29.78,7,0,13,0.00
2013-4-8,68.4,57.0,51.0,49.4,42.1,32.4,89,61,28,29.84,29.65,17,3,24,0.00
2013-4-9,71.4,58.0,41.9,44.2,36.7,27.1,77,50,21,30.00,29.84,11,1,19,0.00
2013-4-10,69.7,57.5,49.3,33.2,28.7,24.5,46,34,19,30.10,30.01,4,0,8,0.00
2013-4-14,61.1,56.2,53.3,53.3,51.0,49.5,93,83,71,29.87,29.82,12,4,12,0.00
2013-4-15,62.8,55.6,49.7,51.3,48.6,43.1,88,78,64,29.89,29.82,14,5,14,0.00
2013-4-16,63.1,53.1,41.4,44.3,40.1,31.4,91,64,39,30.01,29.86,17,6,17,0.00
2013-4-17,69.3,55.9,40.0,39.9,32.5,25.5,77,45,21,30.14,30.02,20,6,20,0.00
2013-4-18,77.1,63.2,48.2,31.8,25.2,19.1,47,25,13,30.22,30.12,27,12,27,0.00
2013-4-19,82.4,64.6,46.0,37.7,31.6,24.9,52,33,13,30.17,29.97,20,5,20,0.00
2013-4-20,88.8,69.9,49.9,51.9,42.0,34.1,64,38,17,29.98,29.88,20,2,20,0.00
2013-4-21,83.9,66.3,51.9,54.9,47.7,41.3,92,55,27,29.98,29.91,8,0,13,0.00
2013-4-22,71.4,59.9,52.3,55.6,52.8,50.0,94,79,55,29.98,29.88,10,1,13,0.00
2013-4-23,73.5,61.0,53.7,54.9,51.7,49.6,88,73,52,29.95,29.86,9,1,13,0.00
2013-4-24,59.6,56.0,53.6,53.9,52.1,50.4,92,87,79,29.99,29.88,5,0,11,0.00
2013-4-25,70.0,60.0,50.6,50.9,48.8,46.9,91,69,45,30.12,29.96,10,1,18,0.00
2013-4-26,74.5,60.1,46.0,53.2,48.8,42.4,92,69,46,30.15,30.09,5,0,12,0.00
2013-4-27,77.3,63.2,49.5,56.6,51.9,46.4,91,69,41,30.13,29.98,8,1,12,0.00
2013-4-28,74.9,60.4,48.5,58.7,52.8,46.6,95,78,56,29.99,29.84,6,1,11,0.00
2013-4-29,73.3,61.1,53.1,59.0,54.8,51.4,94,81,59,29.89,29.78,10,1,12,0.00
2013-4-30,69.4,60.9,55.5,55.7,53.4,51.1,93,77,57,29.88,29.80,10,1,16,0.00
2013-5-1,74.9,64.5,55.1,57.6,53.9,50.7,85,70,53,30.08,29.88,6,1,13,0.00
2013-5-2,78.4,59.7,47.6,50.3,37.4,18.4,92,60,11,30.13,30.07,26,3,32,0.00
2013-5-3,92.6,73.4,56.1,38.6,28.8,17.2,39,22,8,30.02,29.75,15,5,15,0.00
2013-5-4,80.4,63.4,52.7,55.8,48.5,33.7,80,61,28,29.82,29.70,14,3,14,0.00
2013-5-5,62.9,58.2,54.9,53.4,50.2,48.3,92,75,61,29.92,29.80,6,1,16,0.00
2013-5-6,66.6,58.8,54.4,56.4,51.3,45.2,95,78,48,30.01,29.87,5,1,11,0.00
2013-5-7,69.5,61.0,55.3,51.9,49.7,46.2,86,68,46,30.05,29.97,7,1,15,0.00
2013-5-8,70.4,60.7,54.1,52.6,50.1,45.3,89,70,44,30.08,30.05,11,1,17,0.00
2013-5-9,71.8,60.7,48.7,56.1,51.1,45.8,92,72,50,30.09,30.01,12,0,14,0.00
2013-5-10,81.0,65.2,52.5,59.1,54.6,49.9,92,71,39,30.09,29.99,11,0,15,0.00
2013-5-11,82.1,68.8,54.2,62.4,57.3,51.6,94,69,43,30.05,29.99,6,0,14,0.00
2013-5-12,92.8,76.6,58.0,62.8,56.5,52.2,82,54,29,30.03,29.90,6,0,12,0.00
2013-5-13,95.3,77.1,59.4,60.8,53.0,46.3,83,48,24,29.95,29.88,11,1,19,0.00
2013-5-14,75.8,62.6,53.5,57.9,53.1,50.2,95,73,46,29.98,29.87,9,1,15,0.00
2013-5-15,72.9,60.7,50.6,57.8,52.2,47.5,90,75,56,30.02,29.93,7,0,14,0.00
2013-5-16,71.7,59.9,51.6,57.1,52.9,48.8,91,78,60,29.97,29.89,9,0,13,0.00
2013-5-17,72.5,60.8,54.0,56.6,53.5,50.9,91,78,55,29.96,29.90,10,0,15,0.00
2013-5-24,71.2,60.1,48.6,55.4,49.5,44.3,85,69,52,29.98,29.90,17,6,17,0.00
2013-5-25,71.5,60.3,49.0,55.1,50.0,43.9,91,70,54,30.00,29.95,19,5,19,0.00
2013-5-26,72.7,61.6,49.7,56.5,51.1,45.9,90,70,53,30.03,29.98,14,5,14,0.00
2013-5-27,77.4,63.6,51.1,55.9,52.3,47.5,90,68,44,29.99,29.83,14,4,14,0.00
2013-5-28,79.5,66.7,53.6,58.6,54.6,50.1,90,67,43,29.86,29.73,16,4,16,0.00
2013-5-29,84.0,68.4,54.0,58.3,54.4,49.9,88,64,33,29.80,29.70,19,4,19,0.00
2013-5-30,80.4,68.5,53.5,60.4,55.9,50.1,91,66,48,29.85,29.75,6,1,13,0.00
2013-5-31,78.6,66.5,54.5,61.6,56.8,51.1,91,72,55,29.90,29.80,9,1,12,0.00
2013-6-1,85.2,68.4,57.2,62.5,58.1,54.0,94,72,46,29.84,29.72,6,0,11,0.00
2013-6-2,61.2,58.3,57.2,58.2,55.3,54.6,92,90,88,29.79,29.75,0,0,1,0.00
2013-6-10,74.8,65.4,59.0,57.3,54.9,51.2,87,70,51,29.95,29.88,14,6,14,0.00
2013-6-11,81.4,67.8,56.2,61.0,57.3,53.4,93,71,43,29.93,29.88,11,4,11,0.00
2013-6-12,74.3,64.1,57.6,60.6,57.8,55.6,93,81,62,30.00,29.91,13,6,13,0.00
2013-6-13,75.6,65.3,58.6,60.7,57.5,55.5,91,77,58,30.00,29.89,12,4,12,0.00
2013-6-14,75.7,65.0,54.3,60.8,57.0,51.9,94,77,59,29.90,29.83,14,5,14,0.00
2013-6-15,74.4,65.0,59.0,59.1,56.4,54.0,88,75,57,29.97,29.87,15,6,15,0.00
2013-6-16,77.3,63.6,56.5,58.8,56.1,53.9,92,78,51,30.03,29.93,11,2,11,0.00
2013-6-17,79.9,65.7,53.1,60.9,56.3,50.5,93,74,50,29.97,29.86,6,0,12,0.00
2013-6-18,77.6,65.6,53.9,58.8,55.0,50.7,91,70,47,29.91,29.82,10,0,13,0.00
2013-6-19,84.2,67.9,52.5,55.0,51.5,43.5,92,60,25,29.86,29.77,7,0,15,0.00
2013-6-20,82.0,67.8,52.2,56.6,51.7,47.8,86,60,31,29.84,29.79,7,0,14,0.00
2013-6-21,81.3,67.9,53.5,59.0,53.7,48.2,84,62,42,29.88,29.82,7,0,14,0.00
2013-6-22,78.0,66.9,55.3,60.0,55.2,49.9,85,67,47,29.89,29.81,7,0,14,0.00
2013-6-23,71.2,63.2,55.3,59.3,55.7,52.1,90,77,65,29.87,29.79,8,0,14,0.00
2013-6-24,71.1,64.7,58.4,59.9,57.1,54.2,90,77,62,29.93,29.81,6,0,12,0.00
2013-6-25,76.5,68.3,59.4,62.6,59.4,56.5,91,74,59,29.97,29.89,10,0,14,0.00
2013-6-26,83.8,72.6,60.3,64.7,60.7,56.4,88,68,51,29.96,29.90,6,0,12,0.00
2013-6-27,87.8,76.0,64.4,67.2,62.7,59.0,84,65,46,29.99,29.94,6,0,12,0.00
2013-6-28,89.4,77.2,62.3,66.2,62.2,58.6,88,62,41,29.96,29.85,7,1,11,0.00
2013-6-29,95.1,85.6,71.6,66.7,63.7,61.8,73,49,39,29.82,29.72,6,0,11,0.00
2013-6-30,95.7,79.5,67.0,67.2,63.1,58.9,82,59,37,29.79,29.68,8,1,12,0.00
2013-7-1,89.9,76.0,65.0,66.7,63.2,58.2,89,67,36,29.86,29.76,5,0,10,0.00
2013-7-2,83.4,72.5,63.9,66.4,63.1,60.2,89,73,55,29.96,29.84,7,0,12,0.00
2013-7-3,84.4,69.5,61.0,65.4,61.5,58.7,94,77,51,29.90,29.79,5,0,13,0.00
2013-7-4,80.7,69.1,60.3,65.9,61.0,58.3,94,77,58,29.82,29.73,6,0,12,0.00
2013-7-5,80.3,68.2,61.1,64.4,61.1,58.9,93,79,55,29.83,29.75,7,0,12,0.00
2013-7-6,80.0,68.4,62.1,65.3,61.5,59.0,92,80,60,29.81,29.73,9,0,14,0.00
2013-7-7,81.5,68.7,60.2,64.5,60.3,57.2,95,77,52,29.84,29.76,5,0,11,0.00
2013-7-8,87.3,70.2,55.3,63.4,58.1,52.7,92,68,32,29.91,29.84,6,0,11,0.00
2013-7-9,88.3,73.1,59.5,63.6,58.4,53.1,80,61,41,29.96,29.89,7,0,11,0.00
2013-7-10,82.8,70.8,62.9,64.9,60.8,57.3,83,72,51,29.95,29.88,4,0,11,0.00
2013-7-11,79.0,71.0,64.1,65.7,62.4,59.4,88,75,59,29.94,29.87,5,0,9,0.00
2013-7-12,82.0,69.4,59.4,67.0,61.5,57.3,95,77,57,29.91,29.85,10,1,12,0.00
2013-7-13,78.2,62.5,58.2,62.7,58.4,56.4,95,87,59,29.94,29.89,2,0,6,0.00
2013-10-7,83.3,66.5,54.2,54.1,46.9,39.3,79,53,21,29.92,29.89,6,0,13,0.00
2013-10-8,72.4,59.7,47.6,57.4,50.7,40.7,86,73,52,29.92,29.81,8,0,13,0.00
2013-10-9,60.0,56.4,48.5,53.2,49.6,43.7,89,78,61,29.82,29.69,9,1,22,0.00
2013-10-10,65.2,54.9,43.7,50.0,46.6,41.0,93,75,56,30.00,29.79,6,0,12,0.00
2013-10-11,56.3,56.3,56.3,48.8,48.8,48.8,76,76,76,30.00,30.00,0,0,0,0.00
2013-10-12,74.3,57.6,46.0,54.5,50.2,43.5,93,78,46,29.98,29.89,14,2,14,0.00
2013-10-13,68.1,56.7,47.8,54.1,50.4,44.7,95,81,59,30.02,29.93,11,0,16,0.00
2013-10-14,83.2,62.9,45.6,54.2,44.6,37.0,95,60,20,30.03,29.91,14,1,18,0.00
2013-10-15,84.9,67.1,51.6,42.1,37.0,33.5,61,36,16,29.97,29.87,14,1,20,0.00
2013-10-16,84.0,70.5,55.2,36.3,31.5,28.3,45,25,14,30.08,29.97,11,1,21,0.00
2013-10-17,80.2,63.5,49.5,42.2,37.0,33.7,57,40,20,30.03,29.92,9,0,16,0.00
2013-10-18,83.6,62.8,48.7,58.8,41.6,35.2,64,48,23,30.00,29.94,5,0,10,0.00
2013-10-19,84.4,63.6,49.1,54.2,41.7,32.4,76,49,17,30.02,29.96,11,2,11,0.00
2013-10-20,75.7,60.8,47.0,59.0,48.4,36.5,78,65,41,29.97,29.89,2,0,9,0.00
2013-10-21,61.9,61.9,61.9,55.0,55.0,55.0,78,78,78,29.91,29.91,0,0,0,0.00
2013-10-22,64.9,60.8,52.6,55.0,54.5,50.0,91,80,70,29.95,29.91,0,0,5,0.00
2013-10-23,68.0,57.0,51.2,56.4,52.8,48.8,96,86,65,29.98,29.90,3,0,13,0.00
2013-10-24,70.1,60.3,55.8,55.8,53.5,52.3,88,79,59,30.05,29.95,9,0,16,0.00
2013-10-25,74.6,58.9,52.6,56.5,53.5,50.0,94,83,51,30.13,30.01,5,0,8,0.00
2013-10-26,78.4,62.5,47.3,59.7,53.4,45.4,95,75,47,30.10,29.98,3,0,9,0.00
2013-10-27,66.6,64.6,55.7,56.1,55.5,52.3,90,73,69,29.98,29.81,6,0,9,0.00
2013-10-28,62.9,56.6,53.3,52.8,48.5,42.3,90,75,48,29.92,29.79,9,1,15,0.00
2013-10-29,64.0,55.0,45.9,49.5,47.2,43.4,94,77,53,30.01,29.92,6,0,15,0.00
2013-10-30,71.9,55.2,43.1,49.7,44.6,39.0,94,72,31,30.07,29.99,9,0,15,0.00
2013-10-31,78.5,58.4,43.4,47.0,41.5,36.2,88,58,24,30.10,30.00,5,0,10,0.00
2013-11-1,84.3,62.9,46.7,44.0,37.2,33.1,64,43,17,30.12,29.96,7,0,11,0.00
2013-11-2,82.1,64.0,50.6,51.3,41.4,32.7,69,47,19,30.00,29.86,8,0,15,0.00
2013-11-3,69.4,63.1,61.2,55.6,52.7,50.9,71,69,60,29.89,29.82,10,0,12,0.00
2013-11-4,64.3,64.3,64.3,54.7,54.7,54.7,71,71,71,29.82,29.82,0,0,5,0.00
2013-11-5,64.3,64.2,62.7,54.7,50.3,16.7,71,65,16,30.16,29.82,10,0,17,0.00
2013-11-6,79.5,70.9,62.2,25.0,21.8,17.3,20,16,12,30.20,30.12,14,2,24,0.00
2013-11-7,73.8,73.8,73.8,23.2,23.2,23.2,15,15,15,30.13,30.13,1,1,6,0.00
2013-11-12,79.4,66.1,54.4,53.8,47.6,42.6,68,53,31,30.17,30.08,0,0,10,0.00
2013-11-13,90.2,73.6,54.6,47.9,35.7,29.1,58,29,13,30.09,29.91,14,1,22,0.00
2013-11-14,90.7,70.4,58.2,53.3,40.1,31.0,54,36,15,29.93,29.78,7,0,11,0.00
2013-11-15,62.6,62.6,62.6,45.7,45.7,45.7,54,54,54,29.78,29.78,0,0,0,0.00
2013-11-16,62.6,62.6,62.6,45.7,45.7,45.7,54,54,54,29.78,29.78,0,0,0,0.00